2015 VG150

Initial reported observation by Space Surveillance Telescope, Atom Site on 2015-11-14.
(Discoverer will be defined when the object is numbered. See this note on how discoverers are determined.)

Orbit

Orbit type: Amor
Near-Earth Object
One opposition object seen prior.

Note: WebGL enabled browser required.

epoch2019-04-27.0
epoch JD2458600.5
perihelion date2019-04-15.87147
perihelion JD2458589.37147
argument of perihelion (°)273.22186
ascending node (°)131.15864
inclination (°)1.34067
eccentricity0.2827573
perihelion distance (AU)1.0286506
Tisserand w.r.t. Jupiter4.6
ΔV w.r.t. Earth (km/sec)4.7
semimajor axis (AU)1.4341736
mean anomaly (°)6.38615
mean daily motion (°/day)0.57385380
aphelion distance (AU)1.840
period (years)1.72
P-vector [x]0.71450489
P-vector [y]0.65083252
P-vector [z]0.25670955
Q-vector [x]-0.69940865
Q-vector [y]0.65522044
Q-vector [z]0.28550606
absolute magnitude25.7
phase slope0.15
uncertainty5
referenceMPO 369283
observations used58
oppositions1
arc length (days)46
first opposition used2015
last opposition used2015
residual rms (arc-secs)0.32
perturbers coarse indicatorM-v
perturbers precise indicator003Eh
first observation date used2015-11-14.0
last observation date used2015-12-30.0
computer nameMPCALB
JD of orbit computation2457387.003725
perihelion JD uncertainty (days)1.9928E-04
argument of perihelion uncertainty (°)2.7691E-04
ascending node uncertainty (°)2.8790E-04
inclination uncertainty (°)7.3136E-05
eccentricity uncertainty 1.6714E-05
perihelion distance uncertainty (AU)2.1165E-06
Minimum Orbit Intersection Distances (in AU)
for orbit epoch: 2458600.5, reference: MPO369283
Mercury0.70788
Venus0.30564
Earth0.04401
Mars0.0116
Jupiter3.55206
Saturn7.8208
Uranus16.5241
Neptune28.5201

Observations

58 total observations over interval: 2015 11 14.29284 – 2015 12 30.44333
These data are available for download (format description).

Date (UT) J2000 RA J2000 Dec Magn Location Ref
2015 11 14.29284 03 17 47.34 -13 01 04.8 20.9 r G45 – Space Surveillance Telescope, Atom Site MPS 651017
2015 11 14.29739 03 17 49.36 -13 00 47.0 20.9 r G45 – Space Surveillance Telescope, Atom Site MPS 651017
2015 11 14.30211 03 17 51.45 -13 00 29.0 20.0 r G45 – Space Surveillance Telescope, Atom Site MPS 651017
2015 11 14.30901 03 17 54.51 -13 00 02.1 20.8 r G45 – Space Surveillance Telescope, Atom Site MPS 651017
2015 11 14.31865 03 17 58.76 -12 59 24.0 20.9 r G45 – Space Surveillance Telescope, Atom Site MPS 651017
2015 11 14.32343 03 18 00.87 -12 59 05.3 20.8 r G45 – Space Surveillance Telescope, Atom Site MPS 651017
2015 11 14.32933 03 18 03.48 -12 58 41.8 21.0 r G45 – Space Surveillance Telescope, Atom Site MPS 651017
2015 11 18.39287 03 50 21.334 -08 30 08.21 20.6 w F51 – Pan-STARRS 1, Haleakala MPS 651017
2015 11 18.40445 03 50 25.646 -08 29 22.62 20.9 w F51 – Pan-STARRS 1, Haleakala MPS 651017
2015 11 18.41603 03 50 29.976 -08 28 36.88 20.9 w F51 – Pan-STARRS 1, Haleakala MPS 651017
2015 11 18.42761 03 50 34.261 -08 27 51.41 20.7 w F51 – Pan-STARRS 1, Haleakala MPS 651017
2015 11 19.26454 03 56 39.13 -07 33 19.5   291 – LPL/Spacewatch II MPS 651017
2015 11 19.26536 03 56 39.38 -07 33 16.4   291 – LPL/Spacewatch II MPS 651017
2015 11 19.26620 03 56 39.65 -07 33 13.8   291 – LPL/Spacewatch II MPS 651017
2015 11 19.31019 03 56 54.38 -07 30 17.8   711 – McDonald Observatory, Fort Davis MPS 651017
2015 11 19.31310 03 56 55.44 -07 30 06.7   711 – McDonald Observatory, Fort Davis MPS 651017
2015 11 19.31605 03 56 56.49 -07 29 55.1   711 – McDonald Observatory, Fort Davis MPS 651017
2015 11 19.326006 03 57 00.72 -07 29 23.9 19.4 R H01 – Magdalena Ridge Observatory, Socorro MPS 651017
2015 11 19.336347 03 57 04.48 -07 28 43.0 19.5 R H01 – Magdalena Ridge Observatory, Socorro MPS 651017
2015 11 19.340731 03 57 06.10 -07 28 25.9 19.6 R H01 – Magdalena Ridge Observatory, Socorro MPS 651017
2015 11 19.350174 03 57 09.54 -07 27 48.6 19.4 R H01 – Magdalena Ridge Observatory, Socorro MPS 651017
2015 11 21.24733 04 10 01.73 -05 22 37.1 20.4 V 807 – Cerro Tololo Observatory, La Serena MPS 651017
2015 11 21.24979 04 10 02.53 -05 22 28.3 20.6 V 807 – Cerro Tololo Observatory, La Serena MPS 651017
2015 11 21.25231 04 10 03.36 -05 22 18.3 20.7 V 807 – Cerro Tololo Observatory, La Serena MPS 651017
2015 11 21.25456 04 10 04.12 -05 22 09.7 20.6 V 807 – Cerro Tololo Observatory, La Serena MPS 651017
2015 11 21.25711 04 10 04.97 -05 22 00.0 20.3 V 807 – Cerro Tololo Observatory, La Serena MPS 651017
2015 11 22.21760 04 16 13.28 -04 21 46.1 20.7 V 807 – Cerro Tololo Observatory, La Serena MPS 651017
2015 11 22.22002 04 16 14.04 -04 21 37.2 20.5 V 807 – Cerro Tololo Observatory, La Serena MPS 651017
2015 11 22.22255 04 16 14.83 -04 21 28.0 20.6 V 807 – Cerro Tololo Observatory, La Serena MPS 651017
2015 11 22.22484 04 16 15.53 -04 21 19.4 20.6 V 807 – Cerro Tololo Observatory, La Serena MPS 651017
2015 11 22.22737 04 16 16.30 -04 21 09.7 20.6 V 807 – Cerro Tololo Observatory, La Serena MPS 651017
2015 11 22.315925 04 16 49.77 -04 18 28.7 18.8 R 705 – Apache Point MPS 653670
2015 11 22.316928 04 16 50.10 -04 18 24.4 18.6 R 705 – Apache Point MPS 653670
2015 11 22.317931 04 16 50.32 -04 18 21.9 18.8 R 705 – Apache Point MPS 653670
2015 11 29.35891 04 53 15.66 +02 16 40.3 20.5 R 291 – LPL/Spacewatch II MPS 653670
2015 11 29.36549 04 53 17.01 +02 17 00.0 20.4 R 291 – LPL/Spacewatch II MPS 653670
2015 11 29.37208 04 53 18.38 +02 17 19.6 20.0 R 291 – LPL/Spacewatch II MPS 653670
2015 11 30.39210 04 57 29.36 +03 07 12.6 20.1 R 291 – LPL/Spacewatch II MPS 653670
2015 11 30.39822 04 57 30.55 +03 07 29.8 20.4 R 291 – LPL/Spacewatch II MPS 653670
2015 11 30.40435 04 57 31.77 +03 07 47.7 21.0 R 291 – LPL/Spacewatch II MPS 653670
2015 12 01.39931 05 01 23.52 +03 54 40.6 20.4 R 291 – LPL/Spacewatch II MPS 653670
2015 12 01.40313 05 01 24.22 +03 54 51.0 20.5 R 291 – LPL/Spacewatch II MPS 653670
2015 12 01.40695 05 01 24.93 +03 55 01.5 20.7 R 291 – LPL/Spacewatch II MPS 653670
2015 12 02.36264 05 04 56.69 +04 38 28.1   291 – LPL/Spacewatch II MPS 653670
2015 12 02.36518 05 04 57.15 +04 38 34.4 20.1 R 291 – LPL/Spacewatch II MPS 653670
2015 12 02.36773 05 04 57.60 +04 38 41.1 20.2 R 291 – LPL/Spacewatch II MPS 653670
2015 12 03.49044 05 08 45.17 +05 27 39.7   291 – LPL/Spacewatch II MPS 653670
2015 12 03.49315 05 08 45.64 +05 27 45.9   291 – LPL/Spacewatch II MPS 653670
2015 12 03.49588 05 08 46.12 +05 27 53.6   291 – LPL/Spacewatch II MPS 653670
2015 12 05.40642 05 14 54.367 +06 47 10.57 21.2 w F51 – Pan-STARRS 1, Haleakala MPS 657451
2015 12 05.43122 05 14 57.642 +06 48 09.95 21.2 w F51 – Pan-STARRS 1, Haleakala MPS 657451
2015 12 05.44374 05 14 59.304 +06 48 40.07 21.2 w F51 – Pan-STARRS 1, Haleakala MPS 657451
2015 12 19.39753 05 43 17.86 +14 00 26.3 20.8 R 291 – LPL/Spacewatch II MPS 662803
2015 12 19.40187 05 43 18.16 +14 00 32.8 20.5 R 291 – LPL/Spacewatch II MPS 662803
2015 12 19.40619 05 43 18.52 +14 00 37.5 20.5 R 291 – LPL/Spacewatch II MPS 662803
2015 12 30.42746 05 55 40.58 +17 36 07.9 21.9 R 695 – Kitt Peak MPS 664002
2015 12 30.43540 05 55 40.91 +17 36 14.9 21.7 R 695 – Kitt Peak MPS 664002
2015 12 30.44333 05 55 41.26 +17 36 21.9 22.4 R 695 – Kitt Peak MPS 664002